[[{"header":{"parameterUnit":"m.s-1","parameterCategory":1,"la1":30.2991,"la2":30.254,"lo1":-89.0895,"lo2":-89.0444,"dy":0.0017,"dx":0.0017,"nx":28,"ny":28,"refTime":"2023-08-05T21:00:00:Z","depth":0,"parameterNumber":2,"parameterNumberName":"U-component_of_WINDS"},"data":[0,0,0,0,0,0,0,0,0,0,0,0,0,0,0,0,0,0,0,0,0,0,0,0,0,0,0,0,0,0,0,0,0,0,0,0,0,0,0,0,0,0,0,0,0,0,0,0,0,0,0,0,0,0,0,0,0,0,3.747,3.7471,0,3.7547,3.7548,3.7549,3.7442,3.7438,3.7434,3.743,3.7512,3.7518,3.7523,0,0,0,0,0,0,0,0,0,0,0,0,0,3.7232,3.7237,3.747,3.7471,3.7472,3.7547,3.7548,3.7549,3.7442,3.7438,3.7433,3.7429,3.751,3.7517,3.7524,0,0,0,0,0,0,0,0,0,0,0,0,0,3.7325,3.7238,3.747,3.7428,3.7425,3.7546,3.7548,3.7549,3.7443,3.7438,3.7432,3.7426,3.7508,3.7516,3.7525,3.7692,0,0,3.7551,3.7555,0,0,0,0,0,0,0,0,3.732,3.7334,3.7433,3.7431,3.7428,3.7479,3.7493,3.7597,3.7445,3.7436,3.743,3.7424,3.7506,3.7514,3.7541,3.7696,3.77,3.7552,3.7557,3.7561,3.7563,0,0,0,0,0,0,0,3.7313,3.733,3.75,3.7435,3.7432,3.7405,3.7412,3.7513,3.7502,3.7437,3.7429,3.7439,3.7503,3.7533,3.7542,3.7701,3.7552,3.7559,3.7565,3.7568,3.7992,3.7998,0,0,0,0,0,0,3.7312,3.7325,3.7498,3.7503,3.7358,3.7414,3.7422,3.7468,3.7501,3.75,3.7444,3.7434,3.7521,3.7533,3.7545,3.774,3.7561,3.7569,3.7574,3.7986,3.7993,3.8,0,0,0,0,0,0,3.7307,3.7328,3.7495,3.7412,3.7431,3.7424,3.7477,3.7473,3.7502,3.7507,3.7504,3.7477,3.7517,3.7533,3.7655,3.7741,3.7573,3.758,3.7979,3.7988,3.7997,3.8133,0,0,0,0,0,0,3.7301,3.7327,3.7391,3.7414,3.7436,3.7604,3.7483,3.7478,3.7517,3.7505,3.7536,3.7536,3.7514,3.7643,3.7664,3.775,3.7587,3.7971,3.7983,3.7994,3.8121,3.8145,3.8167,0,0,0,0,0,3.7292,3.7428,3.7395,3.7416,3.7515,3.761,3.7622,3.7593,3.7525,3.7588,3.759,3.7535,3.7729,3.7656,3.7679,3.7769,3.7965,3.798,3.7993,3.811,3.8141,3.8166,0,0,0,0,0,0,3.7417,3.743,3.7394,3.7541,3.7575,3.7591,3.7671,3.7627,3.7682,3.7668,3.763,3.7638,3.7768,3.7781,3.77,3.793,3.7836,3.7855,3.7917,3.7946,3.7969,3.7962,3.7594,0,0,0,0,0,3.7462,3.7536,3.7544,3.7673,3.7692,3.7679,3.7719,3.7693,3.7727,3.7741,3.7752,3.7788,3.7856,3.7902,3.7965,3.8122,3.8126,3.8195,3.8218,3.8237,3.8253,3.8333,3.8363,3.8045,3.8045,3.8045,0,0,3.7555,3.7571,3.7621,3.7698,3.7722,3.7799,3.7692,3.778,3.7836,3.7755,3.7869,3.7879,3.7916,3.8055,3.8117,3.807,3.8342,3.8254,3.827,3.8276,3.835,3.838,3.8407,3.8054,3.8053,3.8051,0,0,3.7763,3.7784,3.7891,3.7916,3.7951,3.7941,3.7967,3.799,3.7992,3.8107,3.8046,3.8113,3.8233,3.826,3.829,3.8505,3.8455,3.8527,3.8647,3.8725,3.875,3.8772,3.8846,3.8873,3.8543,3.8544,3.8544,0,3.7874,3.7988,3.7953,3.8044,3.8078,3.8006,3.8113,3.8139,3.8195,3.822,3.8166,3.8311,3.8332,3.8474,3.8526,3.8554,3.858,3.8523,3.875,3.8771,3.8791,3.8861,3.8889,3.8552,3.8551,3.855,3.8549,0,3.8121,3.8201,3.8284,3.8336,3.838,3.848,3.8458,3.8508,3.8477,3.8472,3.8588,3.8609,3.8673,3.8706,3.8679,3.8844,3.8813,3.8755,3.8659,3.883,3.8895,3.8922,3.8564,3.8561,3.8558,3.8556,0,0,3.8412,3.844,3.8471,3.8492,3.8524,3.8585,3.868,3.8741,3.8782,3.8823,3.89,3.9001,3.8946,3.898,3.8954,3.9024,3.9188,3.8957,3.8957,3.8996,3.9368,3.9409,3.9441,3.9155,3.916,3.9165,3.9363,0,3.8617,3.8779,3.8748,3.8907,3.8978,3.8909,3.8991,3.9019,3.9017,3.9077,3.9075,3.9145,3.9069,3.9089,3.9154,3.9154,3.9262,3.914,3.9226,3.9229,3.9216,3.9475,3.952,3.9707,3.9389,3.9393,3.9396,0,3.8878,3.8925,3.909,3.9106,3.9135,3.921,3.9261,3.932,3.935,3.9343,3.9379,3.934,3.9433,3.9336,3.9462,3.938,3.9413,3.9418,3.9424,3.943,3.9322,3.9485,3.9766,3.9793,3.9436,3.9433,3.943,0,3.9069,3.9174,3.9284,3.9305,3.9329,3.9382,3.9394,3.9418,3.9456,3.9501,3.9524,3.9581,3.9612,3.9656,3.9632,3.9565,3.9762,3.9664,3.9757,3.9758,3.9801,3.9798,4.0089,3.9827,3.9826,3.9826,3.9825,0,3.93,3.9403,3.937,3.9438,3.955,3.9513,3.9625,3.963,3.9651,3.9718,3.9663,3.9727,3.9693,3.9754,3.9736,3.9841,3.9857,3.9853,3.9846,3.9856,3.9857,3.9876,3.9862,3.9833,3.9831,3.983,3.9829,0,3.9532,3.9515,3.963,3.9642,3.9647,3.9729,3.9739,3.9801,3.9794,3.9879,3.9897,3.9885,3.9954,3.9934,4.0011,3.9998,4.013,4.0109,4.012,4.0113,4.0207,4.0197,4.0519,4.0558,4.0273,4.0276,4.0278,0,3.968,3.9757,3.9776,3.9815,3.9831,3.9897,3.9934,3.99,3.9941,3.9979,4.0037,4.01,4.0149,4.0262,4.026,4.0317,4.0294,4.0403,4.0303,4.0309,4.0292,4.0287,4.0293,4.0423,4.0426,4.0429,4.0431,0,3.9942,3.9929,3.9983,4.0035,4.008,4.0119,4.0153,4.0189,4.0157,4.0206,4.0274,4.0312,4.0387,4.045,4.0501,4.0513,4.0467,4.0462,4.0486,4.0497,4.0498,4.0495,4.0171,4.0455,4.0453,4.0451,4.045,4.0449,4.0135,4.0198,4.022,4.0282,4.0303,4.0336,4.0394,4.0392,4.0448,4.0505,4.0482,4.056,4.0585,4.0648,4.0667,4.0727,4.0686,4.0722,4.073,4.0739,4.0749,4.049,4.0737,4.0736,4.0735,4.0735,4.0734,0,4.0391,4.0401,4.0459,4.0506,4.0555,4.0505,4.0539,4.0583,4.0652,4.0678,4.0726,4.0803,4.0863,4.0865,4.0921,4.0968,4.0948,4.0984,4.0979,4.0982,4.0785,4.0757,4.0999,4.0999,4.0999,4.0999,4.0999,4.0998,4.0531,4.0634,4.0623,4.0735,4.0745,4.0819,4.0842,4.0871,4.0891,4.0979,4.1028,4.1028,4.1044,4.11,4.1152,4.1151,4.1173,4.1216,4.1207,4.1022,4.0996,4.0971,4.0944,4.1222,4.1222,4.1399,4.14,4.1401]},{"header":{"parameterUnit":"m.s-1","parameterCategory":1,"la1":30.2991,"la2":30.254,"lo1":-89.0895,"lo2":-89.0444,"dy":0.0017,"dx":0.0017,"nx":28,"ny":28,"refTime":"2023-08-05T21:00:00:Z","depth":0,"parameterNumber":3,"parameterNumberName":"V-component_of_WINDS"},"data":[0,0,0,0,0,0,0,0,0,0,0,0,0,0,0,0,0,0,0,0,0,0,0,0,0,0,0,0,0,0,0,0,0,0,0,0,0,0,0,0,0,0,0,0,0,0,0,0,0,0,0,0,0,0,0,0,0,0,6.4667,6.4668,0,6.4764,6.4765,6.4767,6.4719,6.4716,6.4714,6.4711,6.4804,6.4808,6.4813,0,0,0,0,0,0,0,0,0,0,0,0,0,6.4431,6.4435,6.4667,6.4668,6.467,6.4764,6.4765,6.4767,6.4719,6.4716,6.4713,6.471,6.4802,6.4808,6.4813,0,0,0,0,0,0,0,0,0,0,0,0,0,6.4531,6.4437,6.4667,6.4657,6.4657,6.4764,6.4766,6.4767,6.472,6.4716,6.4712,6.4709,6.48,6.4807,6.4814,6.4934,0,0,6.4836,6.4839,0,0,0,0,0,0,0,0,6.4525,6.454,6.4657,6.4658,6.4658,6.4726,6.4716,6.4823,6.4721,6.4696,6.4711,6.4707,6.478,6.4789,6.4815,6.4938,6.4942,6.4837,6.4841,6.4844,6.4846,0,0,0,0,0,0,0,6.4519,6.4535,6.4705,6.4659,6.466,6.4645,6.4655,6.4736,6.4758,6.4698,6.4694,6.4707,6.478,6.4808,6.4817,6.4943,6.4837,6.4843,6.4847,6.485,6.5164,6.5168,0,0,0,0,0,0,6.4513,6.453,6.4702,6.4708,6.4582,6.4652,6.4664,6.4708,6.4757,6.4761,6.471,6.4704,6.4798,6.4808,6.482,6.496,6.4844,6.4851,6.4855,6.516,6.5165,6.5169,0,0,0,0,0,0,6.4508,6.4529,6.4698,6.4618,6.4639,6.4661,6.471,6.4712,6.474,6.4766,6.4769,6.4736,6.4795,6.481,6.4905,6.4962,6.4854,6.4861,6.5155,6.5162,6.5167,6.5242,0,0,0,0,0,0,6.4502,6.4528,6.4576,6.462,6.4643,6.4785,6.4714,6.4716,6.4754,6.4747,6.4791,6.4795,6.4793,6.4895,6.4912,6.497,6.4866,6.515,6.5158,6.5165,6.5235,6.525,6.5263,0,0,0,0,0,6.4494,6.4592,6.4578,6.4599,6.4704,6.4788,6.4801,6.48,6.4759,6.4805,6.4821,6.4793,6.4954,6.4905,6.4924,6.4985,6.5147,6.5156,6.5165,6.5228,6.5247,6.5263,0,0,0,0,0,0,6.4552,6.4598,6.4583,6.47,6.4741,6.478,6.4839,6.4821,6.4873,6.4864,6.4858,6.4868,6.4966,6.4986,6.493,6.5101,6.5043,6.5057,6.5085,6.5103,6.5117,6.5109,6.4872,0,0,0,0,0,6.4579,6.4647,6.4682,6.4781,6.4802,6.4817,6.4854,6.485,6.4891,6.4907,6.4931,6.497,6.5028,6.5067,6.5123,6.5238,6.5244,6.5289,6.5303,6.5315,6.5325,6.5383,6.5403,6.5199,6.5199,6.5199,0,0,6.4634,6.4668,6.471,6.4793,6.4825,6.4891,6.4832,6.4906,6.4954,6.4918,6.5009,6.5027,6.507,6.5175,6.5222,6.5194,6.5383,6.5326,6.5335,6.534,6.5395,6.5414,6.5431,6.5205,6.5204,6.5203,0,0,6.4768,6.4803,6.4887,6.492,6.4968,6.4977,6.4998,6.504,6.5051,6.5143,6.5116,6.5172,6.5275,6.5305,6.5334,6.5478,6.5452,6.5496,6.557,6.5626,6.5642,6.5656,6.5704,6.5721,6.5507,6.5507,6.5507,0,6.483,6.4933,6.4932,6.5008,6.5043,6.5015,6.5098,6.5129,6.5193,6.5216,6.5185,6.5311,6.5338,6.5447,6.5482,6.5508,6.5527,6.549,6.5641,6.5655,6.5668,6.5713,6.5731,6.5512,6.5512,6.5511,6.5511,0,6.5004,6.5075,6.5137,6.52,6.5243,6.5322,6.533,6.5373,6.5365,6.5376,6.5467,6.5499,6.5559,6.5585,6.5577,6.5693,6.5673,6.5642,6.5582,6.5692,6.5734,6.5752,6.5519,6.5517,6.5516,6.5515,0,0,6.5177,6.5239,6.5262,6.5289,6.534,6.5393,6.5469,6.5529,6.5564,6.5609,6.5669,6.5756,6.5726,6.5759,6.5754,6.5804,6.5911,6.5765,6.5766,6.5788,6.6036,6.6057,6.6078,6.5896,6.5899,6.5902,6.6031,0,6.5312,6.5448,6.5449,6.5573,6.5635,6.5609,6.5674,6.5711,6.5723,6.5776,6.5788,6.5848,6.5806,6.5825,6.5874,6.5888,6.596,6.5879,6.5948,6.5951,6.5936,6.61,6.6124,6.6244,6.6048,6.6051,6.6053,0,6.5489,6.554,6.567,6.5709,6.5735,6.5795,6.5848,6.5901,6.594,6.5945,6.5981,6.5967,6.6041,6.5982,6.6081,6.6025,6.6054,6.6064,6.6069,6.6073,6.6006,6.6105,6.6283,6.63,6.6079,6.6077,6.6075,0,6.5597,6.5699,6.5789,6.5813,6.5862,6.5904,6.5925,6.5961,6.5996,6.6043,6.6065,6.6119,6.6147,6.6188,6.6188,6.6145,6.6286,6.6228,6.6289,6.6289,6.6318,6.6315,6.6499,6.6341,6.6341,6.6341,6.634,0,6.5746,6.5826,6.5838,6.5893,6.598,6.5979,6.6064,6.6082,6.6114,6.6169,6.6149,6.6201,6.62,6.6251,6.6251,6.6331,6.6345,6.6348,6.6346,6.6348,6.6347,6.6364,6.6355,6.6346,6.6345,6.6344,6.6343,0,6.5882,6.5894,6.5989,6.6028,6.6039,6.6101,6.6132,6.6183,6.6193,6.6263,6.6279,6.6294,6.6354,6.6359,6.6427,6.6427,6.6522,6.6513,6.651,6.6507,6.6566,6.6559,6.6765,6.679,6.6619,6.6621,6.6622,0,6.5975,6.6035,6.608,6.6117,6.6141,6.6201,6.6237,6.6237,6.6275,6.6323,6.6367,6.6425,6.6471,6.6566,6.6581,6.6633,6.6623,6.6691,6.663,6.6629,6.6619,6.6615,6.6619,6.6702,6.6704,6.6706,6.6707,0,6.6137,6.6139,6.6194,6.6249,6.6293,6.6336,6.6377,6.6407,6.6412,6.6455,6.6516,6.6552,6.6622,6.6678,6.6728,6.6747,6.6726,6.6726,6.6742,6.6743,6.6737,6.6737,6.6538,6.6721,6.6719,6.6718,6.6718,6.6717,6.6251,6.6303,6.6342,6.6402,6.6433,6.647,6.6519,6.6535,6.6587,6.6645,6.6642,6.6709,6.6743,6.6808,6.6831,6.6881,6.6857,6.6882,6.6887,6.6892,6.6897,6.6732,6.689,6.689,6.689,6.6889,6.6889,0,6.6409,6.6433,6.6489,6.6546,6.6592,6.6572,6.6615,6.6654,6.6714,6.6749,6.6794,6.6863,6.6917,6.6936,6.6988,6.7024,6.7016,6.7037,6.7033,6.7037,6.6917,6.6896,6.7043,6.7043,6.7043,6.7043,6.7043,6.7043,6.6497,6.6582,6.6589,6.6687,6.6709,6.6776,6.6802,6.6835,6.6863,6.6941,6.6986,6.6999,6.7027,6.708,6.7127,6.7131,6.715,6.7175,6.7174,6.7061,6.7046,6.7031,6.7011,6.718,6.718,6.7289,6.7291,6.7291]}]]